�������l�o���
Date,Time,MP-1(��Sv/h),MP-2(��Sv/h),MP-3(��Sv/h),MP-4(��Sv/h),MP-5(��Sv/h),MP-6(��Sv/h),MP-7(��Sv/h),MP-8(��Sv/h),����,����(m/s),���J
2020/10/12,00:00,0.626,0.880,0.566,1.078,0.752,0.371,0.641,0.609,�k�k��,8.8,�L
2020/10/12,00:10,0.626,0.881,0.567,1.077,0.753,0.372,0.644,0.609,�k�k��,8.8,�L
2020/10/12,00:20,0.627,0.878,0.566,1.079,0.750,0.371,0.641,0.609,�k�k��,6.9,�L
2020/10/12,00:30,0.623,0.876,0.565,1.078,0.751,0.371,0.640,0.609,�k,6.9,�L
2020/10/12,00:40,0.624,0.875,0.564,1.073,0.749,0.369,0.641,0.608,�k�k��,5.8,�L
2020/10/12,00:50,0.624,0.875,0.564,1.071,0.748,0.370,0.638,0.607,�k�k��,7.2,�L
2020/10/12,01:00,0.625,0.878,0.567,1.074,0.748,0.371,0.639,0.609,�k�k��,7.8,�L
2020/10/12,01:10,0.627,0.879,0.567,1.077,0.752,0.371,0.642,0.607,�k�k��,7.9,�L
2020/10/12,01:20,0.627,0.881,0.568,1.077,0.750,0.371,0.641,0.609,�k,9.4,�L
2020/10/12,01:30,0.626,0.879,0.567,1.076,0.749,0.373,0.641,0.608,�k,9.2,�L
2020/10/12,01:40,0.626,0.878,0.565,1.074,0.749,0.369,0.641,0.609,�k,8.0,�L
2020/10/12,01:50,0.623,0.874,0.564,1.071,0.748,0.370,0.640,0.608,�k,8.5,�L
2020/10/12,02:00,0.626,0.874,0.564,1.071,0.747,0.371,0.639,0.608,�k,8.5,�L
2020/10/12,02:10,0.625,0.877,0.566,1.073,0.747,0.370,0.640,0.609,�k,8.3,�L
2020/10/12,02:20,0.624,0.881,0.566,1.071,0.748,0.370,0.639,0.610,�k,8.4,�L
2020/10/12,02:30,0.626,0.876,0.564,1.071,0.746,0.370,0.639,0.608,�k,8.6,�L
2020/10/12,02:40,0.624,0.876,0.564,1.071,0.747,0.370,0.639,0.608,�k,7.4,�L
2020/10/12,02:50,0.624,0.876,0.564,1.070,0.746,0.370,0.639,0.608,�k,8.7,�L
2020/10/12,03:00,0.626,0.874,0.563,1.069,0.742,0.369,0.639,0.608,�k,7.0,�L
2020/10/12,03:10,0.625,0.874,0.566,1.068,0.743,0.371,0.639,0.606,�k,7.9,�L
2020/10/12,03:20,0.624,0.872,0.565,1.066,0.742,0.369,0.640,0.606,�k,7.4,�L
2020/10/12,03:30,0.625,0.875,0.564,1.069,0.743,0.370,0.637,0.607,�k,7.3,�L
2020/10/12,03:40,0.625,0.874,0.564,1.067,0.742,0.370,0.638,0.605,�k,7.4,�L
2020/10/12,03:50,0.623,0.875,0.563,1.064,0.740,0.370,0.638,0.606,�k,7.0,�L
2020/10/12,04:00,0.622,0.872,0.563,1.064,0.739,0.369,0.636,0.605,�k,6.5,�L
2020/10/12,04:10,0.623,0.871,0.564,1.061,0.738,0.369,0.637,0.606,�k,6.7,�L
2020/10/12,04:20,0.620,0.867,0.563,1.061,0.736,0.370,0.637,0.606,�k,6.7,�L
2020/10/12,04:30,0.621,0.869,0.563,1.060,0.737,0.370,0.637,0.607,�k,7.1,�L
2020/10/12,04:40,0.622,0.871,0.564,1.060,0.738,0.369,0.637,0.605,-,CALM,�L
2020/10/12,04:50,0.623,0.873,0.563,1.062,0.736,0.369,0.637,0.606,�k,8.3,�L
2020/10/12,05:00,0.623,0.874,0.564,1.065,0.739,0.369,0.637,0.605,�k,7.8,�L
2020/10/12,05:10,0.624,0.876,0.564,1.067,0.739,0.369,0.638,0.608,�k,9.6,�L
2020/10/12,05:20,0.625,0.878,0.564,1.066,0.739,0.371,0.639,0.606,�k,7.8,�L
2020/10/12,05:30,0.624,0.875,0.564,1.065,0.739,0.370,0.638,0.608,�k,6.3,�L
2020/10/12,05:40,0.624,0.874,0.564,1.066,0.738,0.372,0.640,0.607,�k�k��,7.1,�L
2020/10/12,05:50,0.624,0.878,0.564,1.068,0.739,0.369,0.638,0.607,�k�k��,6.8,�L
2020/10/12,06:00,0.623,0.878,0.564,1.070,0.739,0.371,0.639,0.607,�k�k��,7.2,�L
2020/10/12,06:10,0.624,0.879,0.563,1.070,0.739,0.371,0.640,0.607,�k�k��,6.8,�L
2020/10/12,06:20,0.626,0.879,0.562,1.071,0.739,0.371,0.640,0.607,�k�k��,7.5,�L
2020/10/12,06:30,0.622,0.879,0.563,1.071,0.740,0.369,0.639,0.606,�k�k��,7.1,�L
2020/10/12,06:40,0.624,0.876,0.564,1.070,0.738,0.369,0.637,0.606,�k�k��,6.0,�L
2020/10/12,06:50,0.622,0.881,0.564,1.071,0.739,0.369,0.639,0.607,�k�k��,6.5,�L
2020/10/12,07:00,0.626,0.878,0.564,1.071,0.742,0.371,0.639,0.607,�k�k��,7.4,�L
2020/10/12,07:10,0.625,0.879,0.565,1.072,0.740,0.370,0.638,0.605,�k�k��,6.8,�L
2020/10/12,07:20,0.625,0.879,0.564,1.072,0.740,0.370,0.638,0.606,�k�k��,7.3,�L
2020/10/12,07:30,0.625,0.880,0.564,1.074,0.742,0.371,0.638,0.607,�k�k��,6.5,�L
2020/10/12,07:40,0.625,0.880,0.563,1.073,0.742,0.371,0.639,0.606,�k�k��,6.4,�L
2020/10/12,07:50,0.627,0.878,0.562,1.075,0.743,0.371,0.639,0.606,�k�k��,6.3,�L
2020/10/12,08:00,0.625,0.880,0.563,1.074,0.743,0.371,0.640,0.608,�k�k��,5.8,�L
2020/10/12,08:10,0.625,0.880,0.562,1.075,0.743,0.371,0.639,0.607,�k�k��,6.0,�L
2020/10/12,08:20,0.624,0.878,0.566,1.076,0.744,0.370,0.640,0.607,�k�k��,6.0,�L
2020/10/12,08:30,0.626,0.879,0.561,1.076,0.746,0.370,0.640,0.608,�k�k��,6.1,�L
2020/10/12,08:40,0.625,0.880,0.564,1.077,0.745,0.370,0.641,0.609,�k�k��,6.5,�L
2020/10/12,08:50,0.628,0.879,0.565,1.079,0.747,0.370,0.641,0.610,�k�k��,6.1,�L
2020/10/12,09:00,0.627,0.881,0.564,1.080,0.748,0.371,0.640,0.609,�k��,5.4,�L
2020/10/12,09:10,0.629,0.882,0.565,1.080,0.748,0.370,0.642,0.610,�k�k��,6.0,�L
2020/10/12,09:20,0.629,0.882,0.564,1.083,0.748,0.370,0.644,0.609,�k��,5.5,�L
2020/10/12,09:30,0.628,0.884,0.566,1.081,0.749,0.373,0.641,0.609,�k�k��,5.6,�L
2020/10/12,09:40,0.629,0.884,0.566,1.085,0.750,0.371,0.642,0.609,�k�k��,5.5,�L
2020/10/12,09:50,0.630,0.885,0.562,1.085,0.752,0.370,0.643,0.611,�k�k��,5.3,�L
2020/10/12,10:00,0.630,0.888,0.562,1.084,0.752,0.372,0.643,0.610,�k��,5.2,�L
2020/10/12,10:10,0.629,0.887,0.566,1.083,0.753,0.371,0.644,0.612,�k�k��,5.4,�L
2020/10/12,10:20,0.630,0.880,0.567,1.085,0.754,0.372,0.642,0.611,�k�k��,4.8,�L
2020/10/12,10:30,0.632,0.887,0.566,1.086,0.754,0.373,0.644,0.610,�k�k��,5.2,�L
2020/10/12,10:40,0.633,0.890,0.568,1.087,0.757,0.372,0.643,0.611,�k�k��,5.4,�L
2020/10/12,10:50,0.633,0.890,0.571,1.086,0.757,0.371,0.643,0.612,�k�k��,5.6,�L
2020/10/12,11:00,0.634,0.890,0.570,1.089,0.757,0.373,0.645,0.612,�k�k��,5.0,�L
2020/10/12,11:10,0.634,0.890,0.570,1.088,0.756,0.374,0.644,0.611,�k�k��,4.7,�L
2020/10/12,11:20,0.633,0.888,0.573,1.089,0.758,0.374,0.644,0.611,�k�k��,4.7,�L
2020/10/12,11:30,0.634,0.890,0.571,1.089,0.757,0.373,0.646,0.611,�k�k��,4.7,�L
2020/10/12,11:40,0.634,0.890,0.571,1.091,0.756,0.373,0.644,0.613,�k�k��,5.6,�L
2020/10/12,11:50,0.632,0.893,0.572,1.093,0.760,0.373,0.645,0.611,�k�k��,4.1,�L
2020/10/12,12:00,0.632,0.893,0.572,1.091,0.759,0.373,0.645,0.610,�k�k��,4.5,�L
2020/10/12,12:10,0.635,0.891,0.572,1.091,0.759,0.374,0.646,0.611,�k�k��,4.0,�L
2020/10/12,12:20,0.632,0.892,0.571,1.093,0.758,0.373,0.647,0.613,�k�k��,5.6,�L
2020/10/12,12:30,0.633,0.894,0.571,1.092,0.760,0.373,0.645,0.611,�k�k��,4.7,�L
2020/10/12,12:40,0.633,0.894,0.572,1.093,0.757,0.376,0.645,0.612,�k�k��,4.0,�L
2020/10/12,12:50,0.636,0.892,0.572,1.097,0.759,0.376,0.647,0.612,�k�k��,4.2,�L
2020/10/12,13:00,0.633,0.895,0.572,1.094,0.758,0.373,0.646,0.614,�k�k��,4.4,�L
2020/10/12,13:10,0.635,0.894,0.573,1.094,0.760,0.374,0.647,0.613,�k�k��,5.0,�L
2020/10/12,13:20,0.635,0.893,0.573,1.093,0.761,0.373,0.645,0.613,�k�k��,4.8,��
2020/10/12,13:30,0.633,0.892,0.573,1.096,0.762,0.373,0.647,0.614,�k�k��,3.8,�L
2020/10/12,13:40,0.633,0.893,0.573,1.096,0.761,0.375,0.646,0.613,�k�k��,3.5,�L
2020/10/12,13:50,0.634,0.895,0.573,1.095,0.760,0.374,0.646,0.613,�k�k��,3.7,�L
2020/10/12,14:00,0.632,0.894,0.574,1.096,0.765,0.375,0.647,0.612,�k�k��,3.5,�L
2020/10/12,14:10,0.632,0.895,0.575,1.095,0.762,0.375,0.647,0.615,�k�k��,4.2,�L
2020/10/12,14:20,0.634,0.893,0.575,1.095,0.764,0.374,0.648,0.615,�k�k��,3.5,�L
2020/10/12,14:30,0.632,0.893,0.573,1.097,0.764,0.374,0.647,0.613,�k�k��,3.4,�L
2020/10/12,14:40,0.635,0.892,0.574,1.098,0.766,0.373,0.648,0.614,�k�k��,3.3,��
2020/10/12,14:50,0.636,0.894,0.574,1.098,0.764,0.375,0.649,0.614,�k�k��,3.3,��
2020/10/12,15:00,0.635,0.893,0.576,1.096,0.762,0.375,0.647,0.615,�k,2.8,��
2020/10/12,15:10,0.637,0.896,0.575,1.097,0.764,0.376,0.648,0.614,�k�k��,3.4,��
2020/10/12,15:20,0.636,0.897,0.576,1.098,0.764,0.376,0.647,0.616,�k�k��,3.6,��
2020/10/12,15:30,0.637,0.897,0.576,1.100,0.767,0.376,0.647,0.615,�k�k��,3.3,��
2020/10/12,15:40,0.638,0.897,0.575,1.098,0.766,0.375,0.648,0.616,�k�k��,3.1,��
2020/10/12,15:50,0.635,0.899,0.574,1.099,0.765,0.375,0.648,0.615,�k�k��,3.0,��
2020/10/12,16:00,0.636,0.897,0.575,1.098,0.764,0.375,0.649,0.616,�k,3.2,��
2020/10/12,16:10,0.637,0.894,0.575,1.097,0.765,0.374,0.650,0.615,�k�k��,3.0,��
2020/10/12,16:20,0.638,0.898,0.574,1.100,0.765,0.374,0.648,0.614,�k,2.9,��
2020/10/12,16:30,0.637,0.899,0.575,1.100,0.764,0.375,0.650,0.616,�k,2.2,��
2020/10/12,16:40,0.636,0.897,0.576,1.100,0.767,0.377,0.649,0.614,�k,2.9,��
2020/10/12,16:50,0.638,0.898,0.574,1.100,0.768,0.375,0.648,0.615,�k�k��,3.3,��
2020/10/12,17:00,0.638,0.899,0.576,1.099,0.765,0.376,0.647,0.617,�k�k��,3.3,��
2020/10/12,17:10,0.637,0.899,0.576,1.102,0.767,0.376,0.648,0.615,�k�k��,3.8,��
2020/10/12,17:20,0.638,0.899,0.574,1.099,0.768,0.376,0.647,0.617,�k�k��,3.3,��
2020/10/12,17:30,0.641,0.900,0.577,1.099,0.770,0.375,0.650,0.616,�k�k��,3.6,��
2020/10/12,17:40,0.639,0.902,0.576,1.102,0.768,0.375,0.649,0.615,�k�k��,3.1,��
2020/10/12,17:50,0.640,0.903,0.575,1.100,0.771,0.376,0.649,0.616,�k�k��,2.9,��
2020/10/12,18:00,0.639,0.902,0.577,1.102,0.768,0.376,0.649,0.617,�k�k��,2.9,��
2020/10/12,18:10,0.641,0.902,0.576,1.104,0.770,0.377,0.648,0.616,�k�k��,3.5,��
2020/10/12,18:20,0.641,0.901,0.575,1.100,0.772,0.377,0.650,0.616,�k,3.2,��
2020/10/12,18:30,0.640,0.902,0.576,1.101,0.770,0.376,0.651,0.617,�k,3.1,��
2020/10/12,18:40,0.640,0.901,0.577,1.102,0.772,0.377,0.650,0.617,�k,2.6,��
2020/10/12,18:50,0.640,0.902,0.577,1.102,0.770,0.377,0.651,0.618,�k,2.0,��
2020/10/12,19:00,0.641,0.899,0.576,1.104,0.773,0.378,0.649,0.618,�k�k��,1.7,��
2020/10/12,19:10,0.641,0.903,0.575,1.102,0.774,0.378,0.652,0.619,�k�k��,0.6,��
2020/10/12,19:20,0.641,0.902,0.575,1.102,0.774,0.379,0.651,0.618,�k�k��,1.7,�L
2020/10/12,19:30,0.643,0.904,0.577,1.100,0.773,0.378,0.650,0.619,�k�k��,0.9,�L
2020/10/12,19:40,0.641,0.903,0.576,1.103,0.773,0.377,0.650,0.620,�k�k��,2.6,��
2020/10/12,19:50,0.643,0.904,0.577,1.102,0.773,0.377,0.651,0.619,�k,2.2,��
2020/10/12,20:00,0.639,0.903,0.577,1.105,0.776,0.378,0.650,0.619,�k�k��,2.2,��
2020/10/12,20:10,0.643,0.903,0.579,1.103,0.775,0.378,0.649,0.617,�k�k��,2.0,�L
2020/10/12,20:20,0.640,0.902,0.577,1.104,0.773,0.377,0.651,0.618,�k,2.6,�L
2020/10/12,20:30,0.642,0.903,0.576,1.104,0.775,0.376,0.652,0.617,�k�k��,1.5,��
2020/10/12,20:40,0.643,0.901,0.578,1.102,0.775,0.378,0.650,0.618,�k�k��,0.9,��
2020/10/12,20:50,0.642,0.901,0.579,1.104,0.774,0.379,0.650,0.617,�k,1.1,�L
2020/10/12,21:00,0.642,0.904,0.577,1.103,0.774,0.378,0.652,0.617,�k�k��,1.4,��
2020/10/12,21:10,0.643,0.904,0.579,1.105,0.774,0.379,0.649,0.617,�k��,2.2,��
2020/10/12,21:20,0.642,0.903,0.578,1.104,0.774,0.378,0.650,0.617,�k��,1.1,��
2020/10/12,21:30,0.641,0.904,0.577,1.102,0.775,0.380,0.651,0.617,�k��,1.9,��
2020/10/12,21:40,0.642,0.904,0.579,1.106,0.775,0.379,0.650,0.618,�k��,1.7,��
2020/10/12,21:50,0.642,0.903,0.578,1.103,0.777,0.378,0.651,0.617,�k��,2.2,�L
2020/10/12,22:00,0.643,0.904,0.578,1.105,0.778,0.379,0.650,0.618,��,1.7,�L
2020/10/12,22:10,0.642,0.904,0.576,1.102,0.778,0.379,0.652,0.618,���쐼,0.9,��
2020/10/12,22:20,0.643,0.902,0.579,1.105,0.776,0.379,0.650,0.618,�쐼,1.2,��
2020/10/12,22:30,0.643,0.903,0.577,1.105,0.779,0.380,0.650,0.618,�쐼,0.9,��
2020/10/12,22:40,0.643,0.905,0.580,1.104,0.778,0.378,0.651,0.618,��,1.1,��
2020/10/12,22:50,0.643,0.903,0.579,1.108,0.776,0.379,0.651,0.617,���쐼,1.1,��
2020/10/12,23:00,0.643,0.904,0.579,1.105,0.777,0.379,0.652,0.617,��,1.2,��
2020/10/12,23:10,0.643,0.904,0.579,1.106,0.779,0.379,0.653,0.619,���k��,1.9,��
2020/10/12,23:20,0.643,0.905,0.577,1.109,0.778,0.379,0.651,0.618,�k��,2.6,��
2020/10/12,23:30,0.643,0.905,0.578,1.109,0.779,0.378,0.651,0.617,���k��,3.1,��
2020/10/12,23:40,0.643,0.905,0.578,1.106,0.778,0.380,0.653,0.618,���k��,3.4,��
2020/10/12,23:50,0.644,0.906,0.577,1.106,0.780,0.380,0.651,0.619,�k��,2.3,��
